パンスターズ彗星

456P/PanSTARRS (2019)

English version
Home page
Updated on February 8, 2023

---------------------------------------------------------------------

・ プロフィール

符号 456P/2021 L4
発見日 2021年6月9日
発見光度 20.9等
発見者 Pan-STARRS 1 telescope (Haleakala)

・ 軌道要素

                    Epoch = 2019 Aug. 25.0 TT
     T = 2019 Sept. 5.66915 TT        Peri. = 234.92054
     e = 0.1191406                    Node  = 243.23503 2000.0
     q = 2.7899378 AU                 Incl. =  16.95981
       a =  3.1672907 AU   n = 0.17485263   P =   5.64 years

・ 光度変化

        H = 17.7  G = 0.15

---------------------------------------------------------------------

軌道要素は、CBET 5210に掲載されたものです。
光度グラフはComet for Windowsで作成したものです。

---------------------------------------------------------------------

Copyright(C) Seiichi Yoshida (comet@aerith.net). All rights reserved.